#timestamp,LO_Frequency,Hit,StdDev 
1637866815.9,286046998.7,N
1637866835.7,286046997.4,N
1637866855.6,286046999.3,N
1637866875.4,286046996.6,N
1637866895.2,286046999.0,N
1637866915.1,286046999.5,N
1637866916.0,286046999.5,N
1637866935.8,286046999.6,N
1637866955.7,286046999.6,N
1637866975.5,286046999.4,N
1637866995.3,286046997.0,N
1637867015.2,286046999.4,N
1637867035.9,286046999.0,N
1637867055.7,286046998.5,N
1637867075.6,286046998.1,N
1637867095.4,286046998.1,N
1637867115.2,286046998.3,N
1637867135.1,286047000.0,N
1637867136.0,286047000.0,N
1637867155.8,286047001.0,N
1637867175.7,286047001.1,N
1637867195.5,286047000.5,N
1637867215.3,286047000.7,N
1637867235.2,286047000.7,N
1637867255.0,286046999.3,N
1637867255.9,286046999.3,N
1637867275.8,286046999.2,N
1637867295.6,286047000.4,N
1637867315.4,286046998.3,N
1637867335.3,286047000.0,N
1637867355.1,286047001.0,N
1637867375.8,286047001.0,N
1637867395.7,286047001.0,N
1637867415.5,286047000.7,N
1637867435.4,286047000.3,N
1637867455.2,286047000.9,N
1637867475.0,286047000.6,N
1637867475.9,286047000.6,N
1637867495.8,286047000.0,N
1637867515.6,286047000.5,N
1637867535.5,286047000.5,N
1637867555.3,286047002.7,N
1637867575.1,286047000.6,N
1637867595.9,286047000.3,N
1637867615.7,286047000.2,N
1637867635.5,286047000.3,N
1637867655.4,286047001.0,N
1637867675.2,286047000.9,N
1637867695.1,286047001.2,N
1637867696.0,286047001.2,N
1637867715.8,286047001.2,N
1637867735.6,286046999.7,N
1637867755.5,286047000.6,N
1637867775.3,286046998.3,N
1637867795.2,286046998.1,N
1637867815.0,286046998.1,N
1637867815.9,286046998.1,N
1637867835.7,286047000.7,N
1637867855.6,286046999.7,N
1637867875.4,286047002.5,N
1637867895.3,286047001.6,N
1637867915.1,286047002.2,N
1637867935.8,286047002.3,N
1637867955.7,286046999.8,N
1637867975.5,286047002.3,N
1637867995.4,286047002.6,N
1637868015.2,286047002.7,N
1637868035.0,286047002.3,N
1637868035.9,286047002.3,N
1637868055.8,286047002.5,N
1637868075.6,286047002.4,N
1637868095.4,286047002.3,N
1637868115.3,286047002.7,N
1637868135.1,286047001.6,N
1637868155.9,286047001.5,N
1637868175.7,286047001.9,N
1637868195.5,286047002.8,N
1637868215.4,286047001.4,N
1637868235.2,286047003.8,N
1637868255.1,286047003.7,N
1637868256.0,286047003.7,N
1637868275.8,286047001.6,N
1637868295.6,286047002.0,N
1637868315.5,286047002.8,N
1637868335.3,286047002.0,N
1637868355.1,286047002.3,N
1637868375.9,286047001.9,N
1637868395.7,286047004.0,Y
1637868415.6,286047000.7,P
1637868435.4,286046998.7,N
1637868455.2,286046999.4,N
1637868475.1,286046998.8,N
1637868476.0,286046998.8,N
1637868495.8,286046998.4,N
1637868515.6,286046999.1,N
1637868535.5,286046998.1,N
1637868555.3,286046998.4,N
1637868575.2,286047000.8,N
1637868595.9,286046998.6,N
1637868615.7,286046998.1,N
1637868635.6,286047002.7,N
1637868655.4,286047000.8,N
1637868675.3,286046999.4,N
1637868695.1,286046997.0,N
1637868696.0,286046997.0,N
1637868715.8,286046998.6,N
1637868735.7,286047000.7,N
1637868755.5,286047000.8,N
1637868775.4,286046998.5,N
1637868795.2,286047000.8,N
1637868815.0,286047000.0,N
1637868815.9,286047000.0,N
1637868835.8,286047002.7,N
1637868855.6,286046999.7,N
1637868875.4,286047000.3,N
1637868895.3,286046999.7,N
1637868915.1,286047002.7,N
1637868935.9,286047002.3,N
1637868955.7,286047002.8,N
1637868975.5,286047000.9,N
1637868995.4,286047002.1,N
1637869015.2,286047002.5,N
1637869035.1,286047002.4,N
1637869036.0,286047002.4,N
1637869055.8,286047000.1,N
1637869075.6,286047002.8,N
1637869095.5,286046999.8,N
1637869115.3,286047000.2,N
1637869135.1,286047002.2,N
1637869155.9,286046999.7,N
1637869175.7,286047002.1,N
1637869195.6,286047002.0,N
1637869215.4,286047001.9,N
1637869235.2,286047004.3,N
1637869255.1,286047004.3,N
1637869256.0,286047004.3,N
1637869275.8,286047003.8,N
1637869295.7,286047001.4,N
1637869315.5,286047002.8,N
1637869335.4,286046999.7,N
1637869355.2,286047004.4,N
1637869375.0,286047004.4,N
1637869375.9,286047004.4,N
1637869395.8,286047001.9,N
1637869415.6,286047002.6,N
1637869435.4,286047001.5,N
1637869455.3,286047001.9,N
1637869475.1,286047001.7,N
1637869495.9,286047002.2,N
1637869515.7,286047003.9,N
1637869535.5,286047003.9,N
1637869555.4,286047003.6,N
1637869575.2,286047004.2,N
1637869595.1,286047003.5,N
1637869596.0,286047003.5,N
1637869615.8,286047003.6,N
1637869635.6,286047003.9,N
1637869655.5,286047003.8,N
1637869675.3,286047004.0,Y
1637869695.1,286047001.0,P
1637869715.9,286046998.8,N
1637869735.7,286046996.9,N
1637869755.6,286046998.7,N
1637869775.8,286046998.5,N
1637869795.6,286047001.2,N
1637869815.5,286047001.0,N
1637869835.3,286046999.9,N
1637869855.1,286047000.5,N
1637869875.9,286047000.6,N
1637869895.7,286047000.2,N
1637869915.5,286047000.4,N
1637869935.4,286047000.6,N
1637869955.2,286046999.9,N
1637869975.1,286046999.7,N
1637869976.0,286046999.7,N
1637869995.8,286047000.2,N
1637870015.6,286047001.8,N
1637870035.5,286047000.0,N
1637870055.3,286046999.8,N
1637870075.1,286047000.5,N
1637870095.9,286047002.3,N
1637870115.7,286047001.5,N
1637870135.6,286047002.5,N
1637870155.4,286047001.4,N
1637870175.2,286047001.4,N
1637870195.1,286047003.8,N
1637870196.0,286047003.8,N
1637870215.8,286047004.0,N
1637870235.7,286047002.6,N
1637870255.5,286047002.8,N
1637870275.3,286047002.2,N
1637870295.2,286047001.6,N
1637870315.0,286046999.8,N
1637870315.9,286046999.8,N
1637870335.8,286046999.8,N
1637870355.6,286047000.2,N
1637870375.4,286046999.7,N
1637870395.3,286047000.0,N
